Time,TemperatureF,DewpointF,PressureIn,WindDirection,WindDirectionDegrees,WindSpeedMPH,WindSpeedGustMPH,Humidity,HourlyPrecipIn,Conditions,Clouds,dailyrainin,SoftwareType,DateUTC
2013-06-25 00:02:00,79.1,74.0,30.06,SSE,167,0.0,5.0,83,0.00,,,0.03,weatherlink.com 1.10,2013-06-25 04:02:00,
2013-06-25 00:17:00,79.0,74.0,30.07,SE,124,3.0,6.0,83,0.00,,,0.00,weatherlink.com 1.10,2013-06-25 04:17:00,
2013-06-25 00:32:00,78.8,74.0,30.06,SE,142,3.0,6.0,84,0.00,,,0.00,weatherlink.com 1.10,2013-06-25 04:32:00,
2013-06-25 00:47:00,78.7,74.0,30.06,SE,146,2.0,6.0,84,0.00,,,0.00,weatherlink.com 1.10,2013-06-25 04:47:00,
2013-06-25 01:02:00,78.4,74.0,30.06,SSE,153,4.0,5.0,85,0.00,,,0.00,weatherlink.com 1.10,2013-06-25 05:02:00,
2013-06-25 01:17:00,78.3,74.0,30.05,SSE,167,5.0,8.0,85,0.00,,,0.00,weatherlink.com 1.10,2013-06-25 05:17:00,
2013-06-25 01:32:00,78.1,73.0,30.05,South,172,5.0,6.0,85,0.00,,,0.00,weatherlink.com 1.10,2013-06-25 05:32:00,
2013-06-25 01:47:00,78.0,74.0,30.04,SSE,150,2.0,7.0,86,0.00,,,0.00,weatherlink.com 1.10,2013-06-25 05:47:00,
2013-06-25 02:02:00,77.8,73.0,30.03,South,169,3.0,7.0,86,0.00,,,0.00,weatherlink.com 1.10,2013-06-25 06:02:00,
2013-06-25 02:17:00,77.6,74.0,30.02,South,188,1.0,8.0,87,0.00,,,0.00,weatherlink.com 1.10,2013-06-25 06:17:00,
2013-06-25 02:32:00,77.4,73.0,30.02,SSW,200,2.0,8.0,87,0.00,,,0.00,weatherlink.com 1.10,2013-06-25 06:32:00,
2013-06-25 02:47:00,77.4,73.0,30.01,SSE,163,3.0,8.0,87,0.00,,,0.00,weatherlink.com 1.10,2013-06-25 06:47:00,
2013-06-25 03:03:00,77.1,73.0,30.01,SSE,152,5.0,5.0,88,0.00,,,0.00,weatherlink.com 1.10,2013-06-25 07:03:00,
2013-06-25 03:18:00,77.0,73.0,30.01,SSE,162,3.0,4.0,88,0.00,,,0.00,weatherlink.com 1.10,2013-06-25 07:18:00,
2013-06-25 03:35:00,76.6,73.0,30.01,SSW,204,2.0,4.0,89,0.00,,,0.00,weatherlink.com 1.10,2013-06-25 07:35:00,
2013-06-25 03:47:00,76.5,73.0,30.01,SSW,205,3.0,6.0,89,0.00,,,0.00,weatherlink.com 1.10,2013-06-25 07:47:00,
2013-06-25 04:03:00,76.4,73.0,30.00,SSE,167,3.0,5.0,90,0.00,,,0.00,weatherlink.com 1.10,2013-06-25 08:03:00,
2013-06-25 04:18:00,76.2,73.0,30.00,SE,142,0.0,3.0,90,0.00,,,0.00,weatherlink.com 1.10,2013-06-25 08:18:00,
2013-06-25 04:33:00,76.1,73.0,30.00,SE,146,0.0,2.0,90,0.00,,,0.00,weatherlink.com 1.10,2013-06-25 08:33:00,
2013-06-25 04:49:00,76.1,73.0,30.00,SSE,151,3.0,4.0,91,0.00,,,0.00,weatherlink.com 1.10,2013-06-25 08:49:00,
2013-06-25 05:04:00,76.0,73.0,29.99,SSW,208,1.0,5.0,91,0.00,,,0.00,weatherlink.com 1.10,2013-06-25 09:04:00,
2013-06-25 05:18:00,75.9,73.0,29.99,South,177,0.0,3.0,91,0.00,,,0.00,weatherlink.com 1.10,2013-06-25 09:18:00,
2013-06-25 05:34:00,75.9,73.0,30.00,SSE,155,0.0,0.0,91,0.00,,,0.00,weatherlink.com 1.10,2013-06-25 09:34:00,
2013-06-25 05:49:00,76.0,73.0,30.00,SE,136,0.0,0.0,91,0.00,,,0.00,weatherlink.com 1.10,2013-06-25 09:49:00,
2013-06-25 06:04:00,75.9,73.0,30.00,SSE,150,0.0,0.0,90,0.00,,,0.00,weatherlink.com 1.10,2013-06-25 10:04:00,
2013-06-25 06:19:00,76.3,73.0,30.00,SSE,152,0.0,0.0,90,0.00,,,0.00,weatherlink.com 1.10,2013-06-25 10:19:00,
2013-06-25 06:35:00,76.5,73.0,30.00,SE,142,0.0,3.0,89,0.00,,,0.00,weatherlink.com 1.10,2013-06-25 10:35:00,
2013-06-25 06:51:00,76.7,73.0,30.01,SE,142,1.0,3.0,89,0.00,,,0.00,weatherlink.com 1.10,2013-06-25 10:51:00,
2013-06-25 07:05:00,77.4,74.0,30.01,SSE,150,1.0,4.0,88,0.00,,,0.00,weatherlink.com 1.10,2013-06-25 11:05:00,
2013-06-25 07:20:00,78.4,74.0,30.02,ESE,121,1.0,2.0,86,0.00,,,0.00,weatherlink.com 1.10,2013-06-25 11:20:00,
2013-06-25 07:35:00,79.4,74.0,30.03,SSE,149,1.0,2.0,84,0.00,,,0.00,weatherlink.com 1.10,2013-06-25 11:35:00,
2013-06-25 07:51:00,79.9,74.0,30.04,South,176,2.0,4.0,82,0.00,,,0.00,weatherlink.com 1.10,2013-06-25 11:51:00,
2013-06-25 08:05:00,80.6,74.0,30.04,SSE,148,2.0,5.0,81,0.00,,,0.00,weatherlink.com 1.10,2013-06-25 12:05:00,
2013-06-25 08:21:00,81.4,74.0,30.04,SE,145,1.0,5.0,79,0.00,,,0.00,weatherlink.com 1.10,2013-06-25 12:21:00,
2013-06-25 08:36:00,82.0,74.0,30.05,South,191,4.0,5.0,77,0.00,,,0.00,weatherlink.com 1.10,2013-06-25 12:36:00,
2013-06-25 08:51:00,82.2,74.0,30.05,SW,222,3.0,6.0,76,0.00,,,0.00,weatherlink.com 1.10,2013-06-25 12:51:00,
2013-06-25 09:06:00,83.0,74.0,30.05,SSE,148,5.0,6.0,75,0.00,,,0.00,weatherlink.com 1.10,2013-06-25 13:06:00,
2013-06-25 09:21:00,83.1,74.0,30.05,SE,124,2.0,6.0,73,0.00,,,0.00,weatherlink.com 1.10,2013-06-25 13:21:00,
2013-06-25 09:36:00,82.9,73.0,30.06,South,174,2.0,4.0,71,0.00,,,0.00,weatherlink.com 1.10,2013-06-25 13:36:00,
2013-06-25 09:52:00,83.8,73.0,30.05,ESE,117,3.0,5.0,70,0.00,,,0.00,weatherlink.com 1.10,2013-06-25 13:52:00,
2013-06-25 10:12:00,84.8,72.0,30.05,SE,127,4.0,4.0,66,0.00,,,0.00,weatherlink.com 1.10,2013-06-25 14:12:00,
2013-06-25 10:21:00,85.0,72.0,30.05,South,188,3.0,8.0,65,0.00,,,0.00,weatherlink.com 1.10,2013-06-25 14:21:00,
2013-06-25 10:37:00,86.7,72.0,30.05,WSW,238,5.0,6.0,62,0.00,,,0.00,weatherlink.com 1.10,2013-06-25 14:37:00,
2013-06-25 10:52:00,86.2,72.0,30.05,SSW,194,1.0,6.0,63,0.00,,,0.00,weatherlink.com 1.10,2013-06-25 14:52:00,
2013-06-25 11:08:00,86.8,71.0,30.05,South,179,3.0,6.0,59,0.00,,,0.00,weatherlink.com 1.10,2013-06-25 15:08:00,
2013-06-25 11:23:00,87.8,71.0,30.05,SW,221,5.0,9.0,57,0.00,,,0.00,weatherlink.com 1.10,2013-06-25 15:23:00,
2013-06-25 11:41:00,87.8,70.0,30.05,SSE,155,3.0,7.0,56,0.00,,,0.00,weatherlink.com 1.10,2013-06-25 15:41:00,
2013-06-25 11:53:00,88.5,70.0,30.04,WSW,243,4.0,6.0,55,0.00,,,0.00,weatherlink.com 1.10,2013-06-25 15:53:00,
2013-06-25 12:08:00,87.5,70.0,30.04,NE,38,4.0,8.0,56,0.00,,,0.00,weatherlink.com 1.10,2013-06-25 16:08:00,
2013-06-25 12:23:00,87.4,69.0,30.04,NNW,341,2.0,7.0,55,0.00,,,0.00,weatherlink.com 1.10,2013-06-25 16:23:00,
2013-06-25 12:38:00,88.1,69.0,30.03,SW,228,2.0,8.0,53,0.00,,,0.00,weatherlink.com 1.10,2013-06-25 16:38:00,
2013-06-25 12:53:00,88.8,69.0,30.03,SSE,162,2.0,7.0,52,0.00,,,0.00,weatherlink.com 1.10,2013-06-25 16:53:00,
2013-06-25 13:09:00,88.7,69.0,30.02,SSW,207,3.0,5.0,53,0.00,,,0.00,weatherlink.com 1.10,2013-06-25 17:09:00,
2013-06-25 13:24:00,88.4,69.0,30.02,WNW,287,0.0,6.0,53,0.00,,,0.00,weatherlink.com 1.10,2013-06-25 17:24:00,
2013-06-25 13:39:00,90.4,70.0,30.01,ESE,121,3.0,4.0,51,0.00,,,0.00,weatherlink.com 1.10,2013-06-25 17:39:00,
2013-06-25 13:54:00,88.1,70.0,30.01,NE,44,3.0,8.0,55,0.00,,,0.00,weatherlink.com 1.10,2013-06-25 17:54:00,
2013-06-25 14:10:00,88.6,70.0,30.00,SE,142,3.0,4.0,54,0.00,,,0.00,weatherlink.com 1.10,2013-06-25 18:10:00,
2013-06-25 14:25:00,88.4,71.0,30.00,SSE,162,6.0,10.0,56,0.00,,,0.00,weatherlink.com 1.10,2013-06-25 18:25:00,
2013-06-25 14:40:00,86.3,72.0,30.00,SE,132,5.0,14.0,63,0.00,,,0.00,weatherlink.com 1.10,2013-06-25 18:40:00,
2013-06-25 14:59:00,86.8,72.0,30.00,ESE,118,6.0,14.0,62,0.00,,,0.00,weatherlink.com 1.10,2013-06-25 18:59:00,
2013-06-25 15:10:00,87.0,71.0,29.99,SE,133,4.0,11.0,60,0.00,,,0.00,weatherlink.com 1.10,2013-06-25 19:10:00,
2013-06-25 15:25:00,89.6,72.0,29.99,SE,139,6.0,10.0,56,0.00,,,0.00,weatherlink.com 1.10,2013-06-25 19:25:00,
2013-06-25 15:39:00,89.7,71.0,29.98,ESE,120,3.0,9.0,54,0.00,,,0.00,weatherlink.com 1.10,2013-06-25 19:39:00,
2013-06-25 15:54:00,90.5,71.0,29.98,ESE,113,3.0,10.0,53,0.00,,,0.00,weatherlink.com 1.10,2013-06-25 19:54:00,
2013-06-25 16:09:00,90.0,72.0,29.97,NE,50,6.0,9.0,56,0.00,,,0.00,weatherlink.com 1.10,2013-06-25 20:09:00,
2013-06-25 16:25:00,88.4,73.0,29.96,East,82,9.0,13.0,60,0.00,,,0.00,weatherlink.com 1.10,2013-06-25 20:25:00,
2013-06-25 16:40:00,89.5,71.0,29.95,SSE,165,3.0,11.0,54,0.00,,,0.00,weatherlink.com 1.10,2013-06-25 20:40:00,
2013-06-25 16:55:00,88.5,71.0,29.95,ESE,120,9.0,13.0,57,0.00,,,0.00,weatherlink.com 1.10,2013-06-25 20:55:00,
2013-06-25 17:10:00,87.6,71.0,29.95,East,93,5.0,9.0,58,0.00,,,0.00,weatherlink.com 1.10,2013-06-25 21:10:00,
2013-06-25 17:25:00,88.0,72.0,29.95,SE,134,7.0,13.0,59,0.00,,,0.00,weatherlink.com 1.10,2013-06-25 21:25:00,
2013-06-25 17:40:00,88.1,72.0,29.94,SE,138,7.0,13.0,60,0.00,,,0.00,weatherlink.com 1.10,2013-06-25 21:40:00,
2013-06-25 17:55:00,88.2,72.0,29.94,SE,134,8.0,12.0,58,0.00,,,0.00,weatherlink.com 1.10,2013-06-25 21:55:00,
2013-06-25 18:10:00,88.2,72.0,29.94,SSE,158,8.0,14.0,58,0.00,,,0.00,weatherlink.com 1.10,2013-06-25 22:10:00,
2013-06-25 18:25:00,87.9,72.0,29.95,ESE,103,7.0,12.0,59,0.00,,,0.00,weatherlink.com 1.10,2013-06-25 22:25:00,
2013-06-25 18:40:00,87.9,71.0,29.95,SE,125,5.0,10.0,58,0.00,,,0.00,weatherlink.com 1.10,2013-06-25 22:40:00,
2013-06-25 18:55:00,87.3,71.0,29.95,SE,131,5.0,15.0,59,0.00,,,0.00,weatherlink.com 1.10,2013-06-25 22:55:00,
2013-06-25 19:10:00,87.2,70.0,29.96,South,169,10.0,13.0,57,0.00,,,0.00,weatherlink.com 1.10,2013-06-25 23:10:00,
2013-06-25 19:25:00,86.9,68.0,29.96,SE,133,8.0,13.0,53,0.00,,,0.00,weatherlink.com 1.10,2013-06-25 23:25:00,
2013-06-25 19:40:00,85.6,69.0,29.97,SSE,163,6.0,12.0,57,0.00,,,0.00,weatherlink.com 1.10,2013-06-25 23:40:00,
2013-06-25 19:55:00,84.9,70.0,29.98,South,169,4.0,10.0,62,0.00,,,0.00,weatherlink.com 1.10,2013-06-25 23:55:00,
2013-06-25 20:11:00,84.3,72.0,29.98,South,186,4.0,11.0,66,0.00,,,0.00,weatherlink.com 1.10,2013-06-26 00:11:00,
2013-06-25 20:25:00,83.6,72.0,29.98,South,177,5.0,9.0,68,0.00,,,0.00,weatherlink.com 1.10,2013-06-26 00:25:00,
2013-06-25 20:40:00,83.1,72.0,29.97,SSE,163,9.0,10.0,69,0.00,,,0.00,weatherlink.com 1.10,2013-06-26 00:40:00,
2013-06-25 20:55:00,82.7,72.0,29.98,SSE,165,4.0,10.0,70,0.00,,,0.00,weatherlink.com 1.10,2013-06-26 00:55:00,
2013-06-25 21:10:00,82.3,72.0,29.98,SSE,150,3.0,10.0,72,0.00,,,0.00,weatherlink.com 1.10,2013-06-26 01:10:00,
2013-06-25 21:25:00,81.9,73.0,29.98,SE,142,4.0,12.0,74,0.00,,,0.00,weatherlink.com 1.10,2013-06-26 01:25:00,
2013-06-25 21:40:00,81.5,73.0,29.98,SSE,159,4.0,12.0,75,0.00,,,0.00,weatherlink.com 1.10,2013-06-26 01:40:00,
2013-06-25 21:55:00,81.2,73.0,29.99,SE,137,3.0,10.0,76,0.00,,,0.00,weatherlink.com 1.10,2013-06-26 01:55:00,
2013-06-25 22:10:00,81.0,73.0,29.99,SSE,158,2.0,8.0,77,0.00,,,0.00,weatherlink.com 1.10,2013-06-26 02:10:00,
2013-06-25 22:25:00,80.7,73.0,30.00,SE,139,2.0,7.0,77,0.00,,,0.00,weatherlink.com 1.10,2013-06-26 02:25:00,
2013-06-25 22:40:00,80.5,73.0,30.00,SSE,149,1.0,7.0,78,0.00,,,0.00,weatherlink.com 1.10,2013-06-26 02:40:00,
2013-06-25 22:55:00,80.2,74.0,30.00,South,177,2.0,7.0,80,0.00,,,0.00,weatherlink.com 1.10,2013-06-26 02:55:00,
2013-06-25 23:10:00,80.0,73.0,29.99,SE,124,5.0,8.0,80,0.00,,,0.00,weatherlink.com 1.10,2013-06-26 03:10:00,
2013-06-25 23:25:00,79.8,74.0,29.99,ESE,120,2.0,6.0,81,0.00,,,0.00,weatherlink.com 1.10,2013-06-26 03:25:00,
2013-06-25 23:40:00,79.6,74.0,29.99,SSE,150,2.0,6.0,82,0.00,,,0.00,weatherlink.com 1.10,2013-06-26 03:40:00,
2013-06-25 23:55:00,79.4,74.0,29.99,SSE,149,4.0,7.0,83,0.00,,,0.00,weatherlink.com 1.10,2013-06-26 03:55:00,